DECAYED
Showing default

DUMMY MASS 4, 69096 (Decayed)

Orbit data source: Space-Track

DUMMY MASS 4, 69096 was a payload satellite owned by Youdian Daxue (CN) in LEO that was launched on Wed, 13 May 2026 UTC via a ZHUQUE-2E launch vehicle from the Jiuquan Satellite Launch Center, China (JSC). Payload-class satellites include a variety of spacecraft equipped with specific instruments for various scientific and technological missions. These include communications satellites like Starlink; space stations such as the ISS; scientific satellites like the Hubble; Earth observation satellites from companies like Planet Labs, Umbra, and HawkEye 360; GPS; miniature CubeSats for education and research; and military/defense satellites.

Not visible in the next 10 days
Identifier
69096, 2026-105B
Orbit
Decayed
Country
Flag of CNCN / PRC
Related business
Flag of CNBeijing University of Posts and Telecommunications (CN)
Manufacturer
Changsha Tianyi
Mission
Decayed spacecraft
Bus & Motor
TY, Unknown motor
Mass
~50 kg wet, ~50 kg dry
Launch date (UTC)
2026-05-13 (1 month ago)
Launch vehicle
ZHUQUE-2E
Launch site
Jiuquan Satellite Launch Center, China (JSC)
Object type
Payload
Rocket body
Debris
Shape & HBR
Unknown shape, 1.1 m
Radar Cross Section
RCS unknown

Expand to show TLE details & history
Last TLE update: 1 month ago

TLE from 1 month ago
0 DUMMY MASS 4
1 69096U 26105B   26136.59256115  .21767838  11068-6  27752-1 0  9994
2 69096  88.9609 198.4943 0273860  58.5544 304.2185 15.63461160   373
Epoch: 2026-05-16T14:13Z
TLE epoch observation values (Epoch: 2026-05-16T14:13:17.283Z)
Latitude
-0.00001°
Longitude
110.86498°
Altitude
280.402 km
Speed
7.796 km/s
True Right ascension
13h 13m 58s
True Declination
0° 00' 00"
Sunlit
Object was in full shadow at epoch
Visualization orbit readout
Latitude
Unknown
Longitude
Unknown
Altitude
Unknown
Speed
Unknown
Apparent Right ascension
Unknown
Apparent Declination
Unknown
Sunlit
N/A
Visualization observer readout
Local Sidereal Time
13:16:42
Azimuth
Unknown
Elevation
Unknown
Doppler factor
Unknown
Orbital elements
Apogee altitude
559.339 km
Perigee altitude
189.488 km
Semi-major axis
6,752.55 km
Eccentricity
0.02739
Inclination
88.9609°
RAAN
198.4943°
Arg. of periapsis
58.5544°
True anomaly
301.57357°
Mean anomaly
304.2185°
Eccentric anomaly
302.90107°
Mean motion
3.91148 °/min
Orbital period
92.04 mins
BSTAR
0.027752
Loading maneuver chart data...
Computing Atmospheric mass density...
Loading historical data...
Loading historical data...
Loading historical data...
Loading historical data...
Loading historical data...
Loading historical data...
Loading historical data...
Other satellites on launch #105 in the year 2026 (2026-05-13 UTC)

Documentation

Showing up to 5 results
|